Location: Washington
(38.8950°N, 77.0370°W)
Time: 15:46:28
(UTC-04:00)

Amateur Radio Satellites - All Passes

Search period start: 07 July 2015 15:16
Search period end: 08 July 2015 15:16
Location: Washington, 38.8950°N, 77.0370°W

Satellite Date Start Highest point End Downlink Frequencies (MHz)
Time Altitude Azimuth
BEESAT 3 07 Jul 15:16:40 15:20:18 31° 51° (NE) 15:23:55 437.485
BEESAT 07 Jul 15:22:18 15:27:02 57° 286° (WNW) 15:31:42 436.000
Oscar 19 07 Jul 15:28:55 15:30:08 11° 273° (W) 15:30:59 437.125/150
BEESAT 2 07 Jul 15:33:34 15:37:21 36° 53° (NE) 15:41:07 435.950
AIST 2 07 Jul 15:37:36 15:39:26 13° 41° (NE) 15:41:24 435.215
SWISSCUBE 07 Jul 15:38:41 15:43:07 36° 289° (WNW) 15:47:27 437.505
AO-7 07 Jul 15:38:59 15:47:02 57° 67° (ENE) 15:55:11 29.400- 29.500
HORYU 2 07 Jul 15:41:10 15:45:17 40° 72° (ENE) 15:49:26 437.375
KKS-1 07 Jul 15:42:37 15:46:46 38° 98° (E) 15:50:55 437.445
ITAMSAT 1 07 Jul 15:43:57 15:48:25 28° 265° (W) 15:52:50 435.822/435.867
ITUPSAT 1 07 Jul 15:45:43 15:50:05 34° 290° (WNW) 15:54:22 437.325
Cosmos 2504 07 Jul 15:51:51 15:57:25 22° 68° (ENE) 16:03:33 435.465 / 435.565
Gurwin Techsat 1B 07 Jul 15:58:08 16:02:07 21° 268° (W) 16:05:57 435.225
AIST 1 07 Jul 16:09:10 16:13:29 54° 280° (W) 16:17:50
JUGNU 07 Jul 16:18:28 16:19:53 11° 175° (S) 16:21:21 437.505
JAS-2 07 Jul 16:21:05 16:26:05 49° 261° (W) 16:31:21 435.910
STARS 07 Jul 16:26:04 16:30:27 73° 102° (ESE) 16:34:49 437.465
MOZHAYETS 4 07 Jul 16:26:11 16:27:45 12° 88° (E) 16:29:36
PCSat 07 Jul 16:31:42 16:36:34 33° 307° (NW) 16:41:25 145.827
O/OREOS (USA 219) 07 Jul 16:34:18 16:38:18 30° 61° (ENE) 16:42:21 437.305
SO-50 07 Jul 16:38:18 16:43:01 83° 302° (WNW) 16:47:55 436.795
YUBILEINY 07 Jul 16:49:03 16:54:57 19° 279° (W) 17:00:22 435.215
BEESAT 3 07 Jul 16:54:57 16:58:06 22° 248° (WSW) 17:01:08 437.485
CUTE-I 07 Jul 17:07:14 17:09:15 12° 61° (ENE) 17:11:33 437.470
Cosmos 2491 07 Jul 17:09:10 17:16:41 29° 292° (WNW) 17:23:56 435.465 / 435.565
BEESAT 2 07 Jul 17:12:17 17:15:11 18° 248° (WSW) 17:17:55 435.950
AIST 2 07 Jul 17:14:23 17:18:35 77° 241° (WSW) 17:22:42 435.215
HORYU 2 07 Jul 17:19:10 17:22:09 17° 268° (W) 17:24:57 437.375
KKS-1 07 Jul 17:20:01 17:23:08 19° 293° (WNW) 17:26:08 437.445
AO-7 07 Jul 17:32:59 17:40:14 31° 265° (W) 17:47:20 29.400- 29.500
Cubesat XI-IV 07 Jul 17:39:56 17:44:12 25° 67° (ENE) 17:48:36 437.490
Cosmos 2504 07 Jul 17:42:42 17:50:17 69° 266° (W) 17:58:24 435.465 / 435.565
MOZHAYETS 4 07 Jul 18:00:52 18:05:29 63° 285° (WNW) 18:10:04
STARS 07 Jul 18:05:29 18:06:22 10° 296° (WNW) 18:07:00 437.465
JUGNU 07 Jul 18:06:33 18:08:01 11° 185° (S) 18:09:27 437.505
O/OREOS (USA 219) 07 Jul 18:13:56 18:17:37 24° 257° (WSW) 18:21:11 437.305
SO-50 07 Jul 18:22:00 18:24:26 13° 322° (NW) 18:26:43 436.795
CUBESAT XI-V 07 Jul 18:37:41 18:41:29 25° 94° (E) 18:45:21 437.345
CUTE-I 07 Jul 18:43:18 18:48:40 86° 254° (WSW) 18:54:06 437.470
BRITE-PL 07 Jul 18:53:21 18:55:58 14° 66° (ENE) 18:58:45 437.365/2234.400
SRMSAT 07 Jul 19:04:53 19:06:47 11° 181° (S) 19:08:40 437.500
Cubesat XI-IV 07 Jul 19:19:04 19:24:07 40° 262° (W) 19:29:09 437.490
STRAND 1 07 Jul 19:19:10 19:23:08 23° 93° (E) 19:27:13 437.568
GONETS M04 07 Jul 19:27:19 19:34:53 33° 70° (ENE) 19:42:38
Cosmos 2504 07 Jul 19:40:34 19:41:28 10° 281° (W) 19:41:40 435.465 / 435.565
DANDE 07 Jul 19:40:51 19:43:23 43° 264° (W) 19:45:53 436.750
GOMX 1 07 Jul 19:47:07 19:51:17 27° 71° (ENE) 19:55:19 467.674
CUSAT 1 07 Jul 19:55:21 19:56:50 14° 266° (W) 19:58:17 437.405
HO-68 07 Jul 19:56:52 20:03:06 35° 65° (ENE) 20:09:28 435.675
SEEDS 07 Jul 19:59:28 20:01:21 13° 66° (ENE) 20:03:26 437.485
DOVE 4 07 Jul 20:13:53 20:18:01 30° 72° (ENE) 20:22:00 437.250
CUBESAT XI-V 07 Jul 20:14:50 20:18:57 30° 290° (WNW) 20:22:57 437.345
BRITE-PL 07 Jul 20:28:39 20:34:05 71° 258° (WSW) 20:39:09 437.365/2234.400
COMPASS 1 07 Jul 20:29:22 20:32:33 22° 70° (ENE) 20:35:51 437.405
PRISM 07 Jul 20:32:04 20:36:13 61° 286° (WNW) 20:40:19 437.425
CINEMA 3 07 Jul 20:34:07 20:37:24 21° 70° (ENE) 20:40:41 145.822/145.860
Oscar 11 07 Jul 20:46:36 20:48:45 14° 66° (ENE) 20:51:06 145.826/435.025
CUTE 1.7 + AOD 2 07 Jul 20:50:07 20:54:15 62° 76° (ENE) 20:58:27 437.475
CANX-2 07 Jul 20:54:00 20:58:11 78° 78° (ENE) 21:02:26 2200.000
STRAND 1 07 Jul 20:57:43 21:02:30 39° 290° (WNW) 21:07:14 437.568
CUBEBUG 2 07 Jul 20:58:47 21:01:35 18° 68° (ENE) 21:04:28 437.445
Cosmos 2499 07 Jul 21:01:14 21:07:50 29° 70° (ENE) 21:15:01 435.465 / 435.565
FUNcube-1 07 Jul 21:19:45 21:22:29 18° 68° (ENE) 21:25:21 145.935
GONETS M04 07 Jul 21:23:47 21:32:06 51° 270° (W) 21:40:18
GOMX 1 07 Jul 21:24:49 21:29:21 31° 264° (W) 21:33:34 467.674
DELFI C3 07 Jul 21:25:49 21:29:03 24° 70° (ENE) 21:32:23 145.870
M-CUBED/EXP-1 PRIME 07 Jul 21:26:07 21:29:59 30° 101° (ESE) 21:34:06 437.505
SEEDS 07 Jul 21:32:41 21:36:45 50° 261° (W) 21:40:51 437.485
AAUSAT CUBESAT 2 07 Jul 21:34:27 21:38:35 74° 258° (WSW) 21:42:45 437.432
UWE-3 07 Jul 21:40:53 21:44:50 41° 73° (ENE) 21:48:46 435.000/436.395/437.385
HO-68 07 Jul 21:43:58 21:50:43 44° 262° (W) 21:57:27 435.675
DOVE 4 07 Jul 21:51:47 21:55:47 25° 265° (W) 21:59:30 437.250
DX 1 07 Jul 22:03:47 22:07:06 22° 68° (ENE) 22:10:30 434.975-435.025
COMPASS 1 07 Jul 22:04:31 22:08:06 27° 265° (W) 22:11:40 437.405
HUMSAT D 07 Jul 22:09:11 22:12:36 27° 71° (ENE) 22:16:06 437.325/437.525
VELOX 1 07 Jul 22:09:36 22:11:48 14° 65° (ENE) 22:14:13 145.980
CINEMA 3 07 Jul 22:10:27 22:14:28 31° 263° (W) 22:18:18 145.822/145.860
UKube-1 07 Jul 22:18:36 22:22:17 28° 70° (ENE) 22:26:03 .
ZACube-1 07 Jul 22:19:49 22:24:01 89° 248° (WSW) 22:28:11 437.345
Oscar 11 07 Jul 22:20:23 22:24:34 49° 261° (W) 22:28:45 145.826/435.025
AUBIESAT-1 07 Jul 22:22:32 22:26:53 76° 289° (WNW) 22:31:30 437.475
CUBEBUG 2 07 Jul 22:34:07 22:38:04 35° 263° (W) 22:41:55 437.445
50 SAT 07 Jul 22:43:01 22:46:24 31° 72° (ENE) 22:49:50 437.505
Cosmos 2499 07 Jul 22:53:36 23:01:25 58° 268° (W) 23:09:44 435.465 / 435.565
FUNcube-1 07 Jul 22:54:45 22:58:36 35° 263° (W) 23:02:24 145.935
AISAT 07 Jul 22:55:40 22:59:54 44° 72° (ENE) 23:04:10 437.250
DELFI C3 07 Jul 23:00:50 23:04:05 23° 266° (W) 23:07:18 145.870
M-CUBED/EXP-1 PRIME 07 Jul 23:01:01 23:04:41 26° 294° (WNW) 23:08:28 437.505
CUBEBUG 1 07 Jul 23:02:16 23:05:58 27° 70° (ENE) 23:09:46 437.445
ANTELSAT 07 Jul 23:04:12 23:08:00 28° 96° (E) 23:11:56 437.575/2403.000
TIGRISAT 07 Jul 23:14:41 23:18:43 35° 97° (E) 23:22:52 435.000
UWE-3 07 Jul 23:19:08 23:21:37 15° 269° (W) 23:23:53 435.000/436.395/437.385
POPSAT HIP 1 07 Jul 23:19:43 23:22:07 15° 91° (E) 23:24:42 437.405
QB50P2 07 Jul 23:19:52 23:22:25 16° 92° (E) 23:25:08 145.880/145.840
SO-50 07 Jul 23:32:57 23:34:22 11° 35° (NE) 23:35:59 436.795
PCSat 07 Jul 23:37:24 23:41:41 24° 48° (NE) 23:46:02 145.827
DX 1 07 Jul 23:39:14 23:43:10 32° 263° (W) 23:47:05 434.975-435.025
ESTCUBE 1 07 Jul 23:40:56 23:45:28 88° 77° (ENE) 23:50:03 437.505/2401.250
VELOX 1 07 Jul 23:43:33 23:47:57 55° 260° (W) 23:52:21 145.980
HUMSAT D 07 Jul 23:45:09 23:48:22 21° 266° (W) 23:51:29 437.325/437.525
SPROUT 07 Jul 23:50:03 23:53:34 25° 70° (ENE) 23:57:09 437.525
UKube-1 07 Jul 23:54:52 23:58:26 23° 265° (W) 00:01:53 .
UNISAT 6 07 Jul 23:55:47 00:00:13 77° 284° (WNW) 00:04:43 437.425
QB50P1 07 Jul 23:57:05 00:01:05 42° 98° (E) 00:05:05 145.935-145.965
NANOSAT C BR1 08 Jul 00:09:40 00:13:49 59° 100° (E) 00:17:58 145.865
DUCHIFAT 1 08 Jul 00:15:15 00:19:25 67° 100° (E) 00:23:36 145.980
BUGSAT 1 08 Jul 00:15:39 00:19:29 41° 99° (E) 00:23:18 437.445
TISAT 1 08 Jul 00:16:25 00:20:11 32° 71° (ENE) 00:23:59 437.305
50 SAT 08 Jul 00:18:39 00:21:08 16° 268° (W) 00:23:29 437.505
POLYITAN 1 08 Jul 00:25:13 00:29:26 87° 289° (WNW) 00:33:40 437.675
AISAT 08 Jul 00:33:57 00:36:44 16° 269° (W) 00:39:22 437.250
CUBEBUG 1 08 Jul 00:38:35 00:42:19 25° 265° (W) 00:45:57 437.445
ANTELSAT 08 Jul 00:41:02 00:44:43 25° 290° (WNW) 00:48:21 437.575/2403.000
TIGRISAT 08 Jul 00:51:58 00:55:17 20° 291° (WNW) 00:58:32 435.000
BEESAT 08 Jul 00:52:05 00:54:40 15° 65° (ENE) 00:57:28 436.000
POPSAT HIP 1 08 Jul 00:54:16 00:58:14 40° 287° (WNW) 01:02:09 437.405
QB50P2 08 Jul 00:54:34 00:58:31 38° 288° (WNW) 01:02:25 145.880/145.840
RS-15 08 Jul 00:58:55 01:07:56 33° 107° (ESE) 01:17:29 29.354- 29.394
SWISSCUBE 08 Jul 01:07:02 01:10:43 23° 68° (ENE) 01:14:32 437.505
SO-50 08 Jul 01:11:02 01:15:59 64° 56° (NE) 01:20:48 436.795
ITUPSAT 1 08 Jul 01:14:06 01:17:54 25° 68° (ENE) 01:21:50 437.325
PCSat 08 Jul 01:20:10 01:25:26 51° 247° (WSW) 01:30:38 145.827
Cosmos 2491 08 Jul 01:23:12 01:30:13 27° 67° (ENE) 01:37:27 435.465 / 435.565
SPROUT 08 Jul 01:25:57 01:29:35 26° 265° (W) 01:33:09 437.525
QB50P1 08 Jul 01:34:03 01:36:39 16° 293° (WNW) 01:39:04 145.935-145.965
NANOSAT C BR1 08 Jul 01:47:39 01:49:13 12° 295° (WNW) 01:50:32 145.865
BUGSAT 1 08 Jul 01:52:21 01:54:38 14° 293° (WNW) 01:56:45 437.445
TISAT 1 08 Jul 01:52:55 01:56:02 19° 267° (W) 01:59:03 437.305
DUCHIFAT 1 08 Jul 01:54:07 01:54:44 10° 295° (WNW) 01:55:07 145.980
YUBILEINY 08 Jul 01:56:58 02:01:57 18° 80° (E) 02:07:27 435.215
Oscar 19 08 Jul 01:58:07 02:02:36 31° 96° (E) 02:07:10 437.125/150
AIST 1 08 Jul 02:17:52 02:21:43 30° 76° (ENE) 02:25:34
ITAMSAT 1 08 Jul 02:20:06 02:22:09 13° 88° (E) 02:24:32 435.822/435.867
BEESAT 08 Jul 02:27:23 02:32:05 58° 260° (W) 02:36:49 436.000
Gurwin Techsat 1B 08 Jul 02:35:03 02:38:51 20° 92° (E) 02:42:48 435.225
KKS-1 08 Jul 02:39:42 02:43:36 31° 70° (ENE) 02:47:32 437.445
SWISSCUBE 08 Jul 02:44:00 02:48:24 36° 263° (W) 02:52:48 437.505
ITUPSAT 1 08 Jul 02:51:18 02:55:39 33° 263° (W) 03:00:00 437.325
SO-50 08 Jul 02:53:14 02:56:03 15° 251° (WSW) 02:58:36 436.795
RS-15 08 Jul 03:08:48 03:19:39 66° 307° (NW) 03:30:50 29.354- 29.394
Cosmos 2491 08 Jul 03:19:12 03:27:48 62° 267° (W) 03:36:17 435.465 / 435.565
STARS 08 Jul 03:21:34 03:25:51 54° 74° (ENE) 03:30:09 437.465
MOZHAYETS 4 08 Jul 03:28:29 03:29:11 10° 63° (ENE) 03:30:10
JAS-2 08 Jul 03:29:50 03:35:24 26° 93° (E) 03:41:34 435.910
Oscar 19 08 Jul 03:37:28 03:41:55 30° 291° (WNW) 03:46:17 437.125/150
AO-7 08 Jul 03:43:43 03:48:47 18° 89° (E) 03:54:20 29.400- 29.500
YUBILEINY 08 Jul 03:49:05 03:57:48 85° 279° (W) 04:06:33 435.215
AIST 1 08 Jul 03:56:01 03:59:11 19° 271° (W) 04:02:12
ITAMSAT 1 08 Jul 03:57:05 04:02:17 71° 286° (WNW) 04:07:27 435.822/435.867
Gurwin Techsat 1B 08 Jul 04:14:01 04:19:07 47° 288° (WNW) 04:24:10 435.225
KKS-1 08 Jul 04:16:43 04:20:16 22° 266° (W) 04:23:44 437.445
Cosmos 2504 08 Jul 04:24:54 04:27:37 13° 81° (E) 04:30:49 435.465 / 435.565
STARS 08 Jul 05:00:40 05:02:41 12° 270° (W) 05:04:28 437.465
MOZHAYETS 4 08 Jul 05:01:15 05:05:49 79° 258° (WSW) 05:10:27
HORYU 2 08 Jul 05:09:36 05:14:06 83° 285° (WNW) 05:18:35 437.375
JAS-2 08 Jul 05:14:01 05:20:44 59° 287° (WNW) 05:28:07 435.910
RS-15 08 Jul 05:26:27 05:34:56 23° 336° (NNW) 05:43:26 29.354- 29.394
AO-7 08 Jul 05:34:18 05:42:43 86° 288° (WNW) 05:51:04 29.400- 29.500
CUBESAT XI-V 08 Jul 05:40:07 05:43:42 23° 68° (ENE) 05:47:24 437.345
YUBILEINY 08 Jul 05:50:54 05:56:13 16° 300° (WNW) 06:01:02 435.215
ISS 08 Jul 05:51:50 05:53:17 13° 130° (SE) 05:54:51 145.825
VERMONT LUNAR 08 Jul 05:54:02 05:56:46 28° 153° (SSE) 05:59:31 437.305
Cosmos 2504 08 Jul 06:11:59 06:18:55 85° 277° (W) 06:25:55 435.465 / 435.565
STRAND 1 08 Jul 06:33:45 06:38:08 30° 69° (ENE) 06:42:38 437.568
BEESAT 3 08 Jul 06:45:07 06:49:11 88° 130° (SE) 06:53:19 437.485
O/OREOS (USA 219) 08 Jul 06:45:07 06:49:19 43° 107° (ESE) 06:53:35 437.305
CUTE-I 08 Jul 07:01:55 07:06:58 42° 98° (E) 07:12:01 437.470
BEESAT 2 08 Jul 07:03:09 07:07:15 76° 302° (WNW) 07:11:24 435.950
JAS-2 08 Jul 07:04:01 07:04:51 10° 302° (WNW) 07:05:11 435.910
DANDE 08 Jul 07:06:25 07:11:25 23° 94° (E) 07:15:45 436.750
PHONESAT 2.4 08 Jul 07:10:11 07:12:56 23° 150° (SSE) 07:15:43 2401.200-2431.200
AIST 2 08 Jul 07:11:15 07:14:56 30° 114° (ESE) 07:18:42 435.215
CUSAT 1 08 Jul 07:16:02 07:21:30 35° 97° (E) 07:25:51 437.405
CUBESAT XI-V 08 Jul 07:16:36 07:20:56 35° 263° (W) 07:25:16 437.345
PRISM 08 Jul 07:20:25 07:24:36 81° 74° (ENE) 07:28:49 437.425
ISS 08 Jul 07:26:08 07:29:21 60° 324° (NW) 07:32:34 145.825
AO-7 08 Jul 07:28:51 07:34:29 20° 306° (NW) 07:39:46 29.400- 29.500
VERMONT LUNAR 08 Jul 07:30:23 07:33:29 80° 347° (NNW) 07:36:36 437.305
Cubesat XI-IV 08 Jul 07:37:11 07:42:35 90° 327° (NNW) 07:47:57 437.490
RS-15 08 Jul 07:45:45 07:53:08 19° 12° (NNE) 08:00:55 29.354- 29.394
Cosmos 2504 08 Jul 08:09:30 08:12:27 12° 299° (WNW) 08:14:57 435.465 / 435.565
STRAND 1 08 Jul 08:12:45 08:17:18 31° 264° (W) 08:21:50 437.568
M-CUBED/EXP-1 PRIME 08 Jul 08:14:19 08:17:02 24° 66° (ENE) 08:19:57 437.505
O/OREOS (USA 219) 08 Jul 08:25:57 08:29:02 18° 304° (NW) 08:31:59 437.305
BEESAT 3 08 Jul 08:26:28 08:27:47 11° 320° (NW) 08:28:57 437.485
GONETS M04 08 Jul 08:26:46 08:34:39 40° 88° (E) 08:42:37
BRITE-PL 08 Jul 08:35:30 08:39:23 36° 97° (E) 08:43:13 437.365/2234.400
CUTE 1.7 + AOD 2 08 Jul 08:38:35 08:40:06 12° 89° (E) 08:41:51 437.475
CANX-2 08 Jul 08:41:52 08:44:14 15° 90° (E) 08:46:48 2200.000
CUTE-I 08 Jul 08:42:32 08:46:49 24° 294° (WNW) 08:50:58 437.470
PHONESAT 2.4 08 Jul 08:47:15 08:50:41 84° 168° (SSE) 08:54:08 2401.200-2431.200
DANDE 08 Jul 08:47:55 08:54:33 48° 281° (W) 08:59:36 436.750
AIST 2 08 Jul 08:49:52 08:53:31 26° 311° (NW) 08:57:07 435.215
CUSAT 1 08 Jul 08:59:11 09:04:02 25° 284° (WNW) 09:07:52 437.405
ISS 08 Jul 09:04:33 09:06:18 14° 342° (NNW) 09:08:01 145.825
VERMONT LUNAR 08 Jul 09:07:24 09:10:29 65° 5° (N) 09:13:36 437.305
AUBIESAT-1 08 Jul 09:09:54 09:13:13 66° 254° (WSW) 09:16:43 437.475
HO-68 08 Jul 09:12:37 09:19:13 40° 97° (E) 09:25:53 435.675
SEEDS 08 Jul 09:18:23 09:22:02 28° 95° (E) 09:25:45 437.485
AAUSAT CUBESAT 2 08 Jul 09:19:24 09:22:22 19° 92° (E) 09:25:27 437.432
Cubesat XI-IV 08 Jul 09:20:01 09:21:59 12° 299° (WNW) 09:23:40 437.490
GOMX 1 08 Jul 09:27:24 09:31:35 86° 101° (ESE) 09:35:45 467.674
Cosmos 2499 08 Jul 09:39:08 09:43:38 19° 83° (E) 09:48:31 435.465 / 435.565
COMPASS 1 08 Jul 09:48:21 09:52:28 49° 99° (E) 09:56:35 437.405
M-CUBED/EXP-1 PRIME 08 Jul 09:49:46 09:51:58 16° 263° (W) 09:54:07 437.505
DOVE 4 08 Jul 09:51:00 09:55:09 85° 283° (WNW) 09:59:22 437.250
RS-15 08 Jul 09:59:05 10:09:56 43° 43° (NE) 10:21:20 29.354- 29.394
ANTELSAT 08 Jul 10:02:47 10:05:57 21° 69° (ENE) 10:09:13 437.575/2403.000
CINEMA 3 08 Jul 10:05:38 10:09:48 60° 101° (E) 10:14:05 145.822/145.860
Oscar 11 08 Jul 10:09:01 10:12:52 31° 96° (E) 10:16:46 145.826/435.025
ZACube-1 08 Jul 10:10:15 10:13:12 19° 93° (E) 10:16:21 437.345
CUTE 1.7 + AOD 2 08 Jul 10:12:12 10:16:24 54° 285° (WNW) 10:20:35 437.475
TIGRISAT 08 Jul 10:12:50 10:16:21 26° 70° (ENE) 10:19:54 435.000
POPSAT HIP 1 08 Jul 10:13:10 10:14:06 11° 65° (ENE) 10:15:16 437.405
QB50P2 08 Jul 10:13:15 10:14:29 11° 65° (ENE) 10:15:57 145.880/145.840
BRITE-PL 08 Jul 10:14:56 10:17:42 17° 293° (WNW) 10:20:16 437.365/2234.400
CANX-2 08 Jul 10:16:20 10:20:26 43° 287° (WNW) 10:24:30 2200.000
GONETS M04 08 Jul 10:23:13 10:31:28 42° 287° (WNW) 10:39:36
PHONESAT 2.4 08 Jul 10:25:22 10:28:47 64° 1° (N) 10:32:13 2401.200-2431.200
CUBEBUG 2 08 Jul 10:25:40 10:29:47 46° 99° (E) 10:34:00 437.445
DELFI C3 08 Jul 10:40:08 10:44:05 48° 99° (E) 10:48:02 145.870
FUNcube-1 08 Jul 10:43:38 10:47:42 43° 98° (E) 10:51:52 145.935
VERMONT LUNAR 08 Jul 10:44:20 10:47:22 48° 202° (SSW) 10:50:23 437.305
QB50P1 08 Jul 10:48:50 10:52:24 27° 71° (ENE) 10:56:02 145.935-145.965
UNISAT 6 08 Jul 10:53:33 10:57:49 80° 77° (ENE) 11:02:06 437.425
AAUSAT CUBESAT 2 08 Jul 10:54:15 10:58:03 33° 288° (WNW) 11:01:49 437.432
SEEDS 08 Jul 10:54:18 10:57:43 23° 290° (WNW) 11:01:03 437.485
HO-68 08 Jul 11:00:24 11:06:56 38° 294° (WNW) 11:13:21 435.675
NANOSAT C BR1 08 Jul 11:00:58 11:04:51 37° 72° (ENE) 11:08:46 145.865
BUGSAT 1 08 Jul 11:04:38 11:08:07 26° 71° (ENE) 11:11:39 437.445
DUCHIFAT 1 08 Jul 11:06:17 11:10:15 41° 73° (ENE) 11:14:14 145.980
UWE-3 08 Jul 11:07:39 11:11:55 72° 284° (WNW) 11:16:15 435.000/436.395/437.385
POLYITAN 1 08 Jul 11:16:45 11:20:54 59° 75° (ENE) 11:25:04 437.675
COMPASS 1 08 Jul 11:25:30 11:27:46 14° 293° (WNW) 11:29:51 437.405
DX 1 08 Jul 11:28:19 11:32:29 45° 99° (E) 11:36:39 434.975-435.025
HUMSAT D 08 Jul 11:28:59 11:33:08 62° 100° (E) 11:37:21 437.325/437.525
Cosmos 2499 08 Jul 11:29:09 11:36:07 65° 281° (W) 11:43:16 435.465 / 435.565
VELOX 1 08 Jul 11:35:33 11:39:23 29° 96° (E) 11:43:15 145.980
ESTCUBE 1 08 Jul 11:35:45 11:39:03 20° 93° (E) 11:42:28 437.505/2401.250
ANTELSAT 08 Jul 11:38:48 11:42:36 30° 264° (W) 11:46:21 437.575/2403.000
UKube-1 08 Jul 11:42:31 11:46:49 61° 101° (E) 11:51:05 .
CINEMA 3 08 Jul 11:45:13 11:46:37 11° 294° (WNW) 11:47:47 145.822/145.860
POPSAT HIP 1 08 Jul 11:45:17 11:49:30 65° 260° (W) 11:53:42 437.405
Oscar 11 08 Jul 11:45:31 11:48:54 22° 291° (WNW) 11:52:12 145.826/435.025
QB50P2 08 Jul 11:45:43 11:49:56 62° 259° (W) 11:54:07 145.880/145.840
ZACube-1 08 Jul 11:45:49 11:49:42 34° 287° (WNW) 11:53:36 437.345
TIGRISAT 08 Jul 11:49:34 11:53:04 24° 265° (W) 11:56:30 435.000
50 SAT 08 Jul 11:53:40 11:57:33 59° 100° (E) 12:01:27 437.505
PHONESAT 2.4 08 Jul 12:03:25 12:06:51 66° 198° (SSW) 12:10:16 2401.200-2431.200
CUBEBUG 2 08 Jul 12:03:42 12:06:09 15° 293° (WNW) 12:08:28 437.445
RS-15 08 Jul 12:11:30 12:23:04 63° 246° (WSW) 12:34:57 29.354- 29.394
DELFI C3 08 Jul 12:16:47 12:18:47 13° 293° (WNW) 12:20:36 145.870
ISS 08 Jul 12:19:01 12:21:17 17° 22° (NNE) 12:23:35 145.825
FUNcube-1 08 Jul 12:21:06 12:23:44 16° 292° (WNW) 12:26:14 145.935
AISAT 08 Jul 12:23:43 12:28:07 74° 285° (WNW) 12:32:30 437.250
QB50P1 08 Jul 12:24:50 12:28:15 23° 266° (W) 12:31:35 145.935-145.965
CUBEBUG 1 08 Jul 12:27:47 12:32:06 64° 101° (E) 12:36:24 437.445
NANOSAT C BR1 08 Jul 12:38:01 12:40:51 17° 268° (W) 12:43:32 145.865
BUGSAT 1 08 Jul 12:40:06 12:43:33 24° 265° (W) 12:46:55 437.445
DUCHIFAT 1 08 Jul 12:43:45 12:46:17 15° 269° (W) 12:48:39 145.980
POLYITAN 1 08 Jul 12:56:17 12:57:16 10° 271° (W) 12:57:58 437.675
DX 1 08 Jul 13:05:44 13:08:23 16° 294° (WNW) 13:10:54 434.975-435.025
HUMSAT D 08 Jul 13:07:09 13:08:25 11° 295° (WNW) 13:09:29 437.325/437.525
ESTCUBE 1 08 Jul 13:11:54 13:16:03 35° 289° (WNW) 13:20:08 437.505/2401.250
VELOX 1 08 Jul 13:12:17 13:15:49 23° 291° (WNW) 13:19:15 145.980
SPROUT 08 Jul 13:12:57 13:17:11 58° 100° (E) 13:21:23 437.525
Oscar 19 08 Jul 13:13:42 13:18:26 40° 71° (ENE) 13:23:14 437.125/150
UKube-1 08 Jul 13:20:44 13:22:28 12° 296° (WNW) 13:24:00 .
50 SAT 08 Jul 13:31:07 13:31:43 10° 294° (WNW) 13:32:07 437.505
ITAMSAT 1 08 Jul 13:36:22 13:39:52 19° 65° (ENE) 13:43:32 435.822/435.867
TISAT 1 08 Jul 13:37:08 13:41:19 71° 101° (ESE) 13:45:29 437.305
PHONESAT 2.4 08 Jul 13:42:15 13:44:30 16° 213° (SSW) 13:46:40 2401.200-2431.200
ISS 08 Jul 13:54:46 13:58:00 75° 220° (SW) 14:01:13 145.825
Gurwin Techsat 1B 08 Jul 13:54:46 13:59:15 29° 68° (ENE) 14:03:50 435.225
YUBILEINY 08 Jul 14:00:57 14:09:14 46° 74° (ENE) 14:17:37 435.215
CUBEBUG 1 08 Jul 14:06:27 14:07:58 11° 296° (WNW) 14:09:16 437.445
PCSat 08 Jul 14:18:16 14:22:30 25° 108° (ESE) 14:26:53 145.827
Cosmos 2491 08 Jul 14:23:03 14:30:26 33° 86° (E) 14:38:02 435.465 / 435.565
BEESAT 08 Jul 14:28:55 14:33:24 39° 98° (E) 14:37:53 436.000
RS-15 08 Jul 14:30:03 14:33:46 11° 262° (W) 14:36:05 29.354- 29.394
AO-7 08 Jul 14:41:26 14:47:45 26° 57° (ENE) 14:54:20 29.400- 29.500
SWISSCUBE 08 Jul 14:45:02 14:49:48 64° 101° (E) 14:54:33 437.505
AIST 1 08 Jul 14:46:36 14:49:45 20° 89° (E) 14:53:03
SPROUT 08 Jul 14:51:03 14:52:49 12° 295° (WNW) 14:54:23 437.525
ITUPSAT 1 08 Jul 14:52:32 14:57:21 69° 102° (ESE) 15:02:08 437.325
Oscar 19 08 Jul 14:53:55 14:57:58 23° 267° (W) 15:01:54 437.125/150
BEESAT 3 08 Jul 15:05:00 15:08:44 34° 53° (NE) 15:12:25 437.485
